Regional Weather Roundup
Issued by NWS

Home | Current Version | Previous Version | Graphics & Text | Print | Product List | Glossary On
Versions: 1 2 3 4 5 6 7 8 9 10 11 12 13 14 15 16 17 18 19 20 21 22 23 24 25 26 27 28 29 30 31 32 33 34 35 36 37 38 39 40 41 42 43 44 45 46 47 48 49 50
000
ASUS43 KMKX 270121
RWRWI

WISCONSIN REGIONAL WEATHER ROUNDUP
NATIONAL WEATHER SERVICE MILWAUKEE/SULLIVAN WI
800 PM CDT SUN MAR 26 2017

NOTE: "FAIR" INDICATES FEW OR NO CLOUDS BELOW 12,000 FEET WITH NO
SIGNIFICANT WEATHER AND/OR OBSTRUCTIONS TO VISIBILITY.

WIZ001-002-006>008-014>016-023>028-270200-
NORTHWEST WISCONSIN

CITY           SKY/WX    TMP DP  RH WIND       PRES   REMARKS
SUPERIOR ARPT  DRIZZLE   34  33  96 CALM      29.97R
ASHLAND        CLOUDY    34  32  92 N6        29.96R WCI  29
HAYWARD        CLOUDY    37  33  85 NE7       29.93R FOG     WCI  32
SIREN          DRIZZLE   36  35  96 N5        29.95R WCI  32
CUMBERLAND     CLOUDY    36  34  93 N6        29.91S WCI  31
RICE LAKE      CLOUDY    39  37  91 CALM      29.92R
CHETEK         CLOUDY    39  37  92 N5        29.91R
LADYSMITH      CLOUDY    40  37  89 N7        29.92R WCI  35
EAU CLAIRE     CLOUDY    42  38  85 N3        29.90R
MENOMONIE      CLOUDY    42  40  92 CALM      29.90F
NEW RICHMOND   CLOUDY    39  38  97 N5        29.93R FOG
OSCEOLA        CLOUDY    39  39 100 N7        29.96S FOG     WCI  34
$$

WIZ003>005-009-010-017-018-270200-
NORTH CENTRAL WISCONSIN

CITY           SKY/WX    TMP DP  RH WIND       PRES   REMARKS
MANITOWISH WTR CLOUDY    33  33 100 N5        29.89S FOG     WCI  29
ARBOR VITAE    CLOUDY    38  37  96 N5        29.88R WCI  34
WOODRUFF       CLOUDY    38  37  96 N5        29.88R WCI  34
RHINELANDER    LGT RAIN  39  38  96 CALM      29.87S FOG
EAGLE RIVER    LGT RAIN  36  36 100 CALM      29.87S
LAND O LAKES   MIX PCPN  35  35  99 N5        29.89S WCI  31
PHILLIPS       CLOUDY    37  37 100 N3        29.89R
TOMAHAWK       DRIZZLE   37  37  97 CALM      29.89R
MEDFORD        DRIZZLE   38  38  97 N5        29.88R WCI  35
MERRILL        RAIN      38  38 100 CALM      29.88R
$$

WIZ029-030-035-036-043>047-270200-
CENTRAL WISCONSIN

CITY           SKY/WX    TMP DP  RH WIND       PRES   REMARKS
WAUSAU         RAIN      39  38  96 NW3       29.86S FOG
MOSINEE        LGT RAIN  37  37 100 VRB3      29.88S
MARSHFIELD     LGT RAIN  38  37  97 NW5       29.87R FOG     WCI  34
STEVENS POINT  RAIN      36  36 100 CALM      29.88S
WAUPACA        DRIZZLE   40  39  95 CALM      29.89R
WAUTOMA        LGT RAIN  39  38  96 CALM      29.89R
WISC RAPIDS    LGT RAIN  39  39 100 NW3       29.90R FOG
CAMP DOUGLAS   CLOUDY    39  39 100 NW3       29.89R
$$

WIZ011>013-019>022-031-037>040-048>050-270200-
NORTHEAST WISCONSIN

CITY           SKY/WX    TMP DP  RH WIND       PRES   REMARKS
ANTIGO         RAIN      36  36 100 CALM      29.87R
SHAWANO        LGT RAIN  39  37  93 CALM      29.89R
OCONTO         CLOUDY    36  35  98 N5        29.88R WCI  32
STURGEON BAY   CLOUDY    34  34 100 N7        29.87R WCI  28
GREEN BAY      LGT RAIN  37  37 100 NE6       29.88R FOG     WCI  32
MANITOWOC      LGT RAIN  39  39 100 NW6       29.87R FOG     WCI  35
APPLETON       DRIZZLE   37  37 100 N6        29.86R WCI  33
CLINTONVILLE   LGT RAIN  37  36  93 CALM      29.88R
OSHKOSH        LGT RAIN  40  39  97 N3        29.87R FOG
$$

WIZ032>034-041-042-053>061-270200-
SOUTHWEST WISCONSIN

CITY           SKY/WX    TMP DP  RH WIND       PRES   REMARKS
LA CROSSE      CLOUDY    43  40  89 W3        29.91R
SPARTA         CLOUDY    40  39  97 N3        29.91R
VIROQUA        CLOUDY    40  40 100 NW10      29.88R WCI  34
BOSCOBEL       CLOUDY    45  42  89 N3        29.89R
PRAIRIE DU CHI CLOUDY    44  41  91 NW3       29.89S
PLATTEVILLE    CLOUDY    45  45 100 NW5       29.88R
$$

WIZ056-057-062-063-064-067-068-270200-
SOUTH CENTRAL WISCONSIN

CITY           SKY/WX    TMP DP  RH WIND       PRES   REMARKS
REEDSBURG      DRIZZLE   39  39 100 NW5       29.88R
BARABOO/DELLS  LGT RAIN  40  39  97 NW5       29.87R
LONE ROCK      CLOUDY    43  40  89 NW5       29.89R
MINERAL POINT  CLOUDY    43  43 100 NW3       29.87R FOG
MADISON        LGT RAIN  41  39  93 N7        29.86S
MIDDLETON      CLOUDY    43  43 100 NE6       29.87R
WATERTOWN      DRIZZLE   42  42 100 NW8       29.86R
MONROE         FOG       45  45 100 NW6       29.86R VSB 1/2
JANESVILLE     CLOUDY    50  50 100 CALM      29.85R
$$

WIZ051-052-058>065-066-070>072-270200-
SOUTHEAST WISCONSIN

CITY           SKY/WX    TMP DP  RH WIND       PRES   REMARKS
MILWAUKEE      CLOUDY    42  39  89 N5        29.85S
WAUKESHA       CLOUDY    43  43 100 CALM      29.86R FOG
MILWAUKEE/TIMM DRIZZLE   43  39  87 CALM      29.86R
RACINE         CLOUDY    41  39  93 N5        29.87R FOG
KENOSHA        LGT RAIN  48  47  96 CALM      29.85R FOG
FOND DU LAC    LGT RAIN  40  37  89 N7        29.87R FOG
SHEBOYGAN      LGT RAIN  40  39  97 CALM      29.85S FOG
WEST BEND      RAIN      41  41 100 CALM      29.85R
JUNEAU         DRIZZLE   41  40  97 CALM      29.88R
$$

LSZ147-162-270200-
LAKE SUPERIOR

STATION/POSITION TIME  TEMP    WIND        PRES    WAVE
                       AIR SEA DIR/SP/G            HT/PER
                 (UTC) (F)     (DEG/KT/KT) (MB)    (FT/S)
DEVILS ISLAND    0000   34      40/  5/  6 1015.1R
PORT WING        0040   34      30/  5/  7 1014.6S
SAXON HARBOR     0040   33     340/  1/  2 1013.9S
$$

LMZ867-665-643>646-270200-
LAKE MICHIGAN

STATION/POSITION TIME  TEMP    WIND        PRES    WAVE
                       AIR SEA DIR/SP/G            HT/PER
                 (UTC) (F)     (DEG/KT/KT) (MB)    (FT/S)
CHAMBERS ISLAND  0030   33     360/  7/  9 1011.2S
NORTHPORT PIER   0040   34     340/  3/  4 1011.5S
KEWAUNEE LAKESHO 0054   37      30/  2/  5 1010.7R
SHEBOYGAN LAKESH 0100   39     350/  8/  9 1011.4R
PORT WASHINGTON  0040   40      50/  2/  3 1011.9S
MILWAUKEE LAKESH 0100   40      20/  3/  4   N/A
KENOSHA   LAKESH 0000   39     360/  2/  4 1010.5
$$

TC  - TEMPERATURE IN CELSIUS
VSB - VISIBILITY IN STATUTE MILES
WCI - WIND CHILL INDEX
HX  - HEAT INDEX





USA.gov is the U.S. government's official web portal to all federal, state and local government web resources and services.